Location: Fond Mahaut
(18.0707°N, 63.0465°W)
Time: 05:15:33
(UTC+00:00)

Cosmos 1666 - Pass Details

Date: 08 December 2019
Orbit: 498 x 521 km, 82.5° (Epoch: 27 January)

Event Time Altitude Azimuth Distance (km) Brightness Sun altitude
Rises 22:22:52 0° 2° (N) 2,581 6.0 -11.0°
Reaches altitude 10° 22:25:01 10° 7° (N) 1,696 5.1 -11.5°
Maximum altitude 22:28:39 53° 84° (E) 614 2.7 -12.3°
Drops below altitude 10° 22:32:16 10° 162° (SSE) 1,692 5.3 -13.1°
Sets 22:34:24 0° 167° (SSE) 2,575 6.3 -13.6°
